Flag for Austria Weather past 2 weeks in Knittelfeld, Styria, Austria

Now
41 °F

Passing clouds.


Feels Like: 36 °F
Forecast: 22 / 45 °F
Wind: 7 mph from East

Location: Zeltweg

Current Time: Feb 28, 2015 at 7:34:54 PM

Latest Report: Feb 28, 2015 at 6:50 PM


Visibility: 15 mi

Pressure: 30.04 "Hg

Humidity: 57%

Dew point: 27 °F

Location of KnittelfeldLocation

Historic Weather in Knittelfeld — Graph

°F

Knittelfeld temperature yesterday

Maximum temperature yesterday: 48 °F (at 2:50 PM)
Minimum temperature yesterday: 23 °F (at 5:50 AM)
Average temperature yesterday: 37 °F

Past Weeks' High & Low Weather Summary

 TemperatureHumidityPressure
High48 °F (Feb 27, 2:50 PM)100% (Feb 13, 8:50 PM)30.66 "Hg (Feb 13, 8:50 PM)
Low16 °F (Feb 14, 5:50 AM)34% (Feb 20, 2:50 PM)29.56 "Hg (Feb 23, 1:50 PM)
Average35 °F75%30.01 "Hg
* Reported Feb 13 5:50 PM — Feb 28 5:50 PM, Knittelfeld, Weather by CustomWeather, © 2015

Note: Actual official high and low records may vary slightly from our data, if they occured in-between our weather recording intervals... More about our weather records

Advertising

Knittelfeld weather history for previous 24 hours

 ConditionsComfort  
Time TempWeatherWind HumidityBarometerVisibility
5:50 PM
Sat, Feb 28
41 °FPassing clouds.7 mph57%30.04 "Hg19 mi
4:50 PM43 °FPartly sunny.13 mph53%30.01 "Hg19 mi
3:50 PM45 °FPartly sunny.14 mph49%30.01 "Hg19 mi
2:50 PM46 °FPartly sunny.13 mph46%30.01 "Hg19 mi
1:50 PM46 °FPartly sunny.7 mph43%30.04 "Hg19 mi
12:50 PM45 °FPartly sunny.6 mph49%30.04 "Hg19 mi
11:50 AM45 °FPartly sunny.3 mph49%30.04 "Hg16 mi
10:50 AM45 °FPartly sunny.6 mph57%30.04 "Hg16 mi
9:50 AM39 °FScattered clouds.2 mph75%30.07 "Hg16 mi
8:50 AM34 °FScattered clouds.1 mph87%30.04 "Hg12 mi
7:50 AM32 °FPartly sunny.1 mph93%30.04 "Hg9 mi
6:50 AM30 °FPartly sunny.1 mph93%30.01 "Hg9 mi
5:50 AM30 °FOvercast.2 mph93%30.01 "Hg9 mi
4:50 AM28 °FPassing clouds.1 mph93%30.01 "Hg9 mi
3:50 AM30 °FPassing clouds.2 mph93%29.98 "Hg9 mi
9:50 PM
Fri, Feb 27
32 °FPassing clouds.1 mph93%29.92 "Hg9 mi
8:50 PM36 °FPassing clouds.3 mph81%29.89 "Hg9 mi
7:50 PM36 °FPassing clouds.1 mph75%29.89 "Hg9 mi
Weather by CustomWeather, © 2015

See weather overviewHow to use our weather pages